Regional Weather Roundup
Issued by NWS Sioux Falls, SD

Home | Current Version | Previous Version | Text Only | Print | Product List | Glossary On
Versions: 1 2 3 4 5 6 7 8 9 10 11 12 13 14 15 16 17 18 19 20 21 22 23 24 25 26 27 28 29 30 31 32 33 34 35 36 37 38 39 40 41 42 43 44 45 46 47 48 49 50
000
ASUS43 KFSD 300502
RWRFSD

WEATHER ROUNDUP FOR SE SOUTH DAKOTA/SW MINNESOTA/NW IOWA
NATIONAL WEATHER SERVICE SIOUX FALLS SD
1200 AM CDT THU OCT 30 2014

NOTE: "FAIR" INDICATES FEW OR NO CLOUDS BELOW 12,000 FEET WITH NO
SIGNIFICANT WEATHER AND OR OBSTRUCTIONS TO VISIBILITY.


SDZ038>040-050-052>070-300600-
SOUTHEAST SOUTH DAKOTA

CITY           SKY/WX    TMP DP  RH WIND       PRES   REMARKS
CHAMBERLAIN    CLEAR     39  31  71 W7        29.98R
HURON          CLOUDY    46  33  60 S6        29.95F
MADISON        CLOUDY    45  32  61 S12       29.98F
MITCHELL       CLOUDY    46  34  62 S9        29.97F
SIOUX FALLS    CLOUDY    47  32  56 S9        29.99F
WINNER         FAIR      47  27  45 W10       30.00S
YANKTON        CLOUDY    46  32  57 E5        30.00F
$$

MNZ071-072-080-081-089-090-097-098-300600-
SOUTHWEST MINNESOTA

CITY           SKY/WX    TMP DP  RH WIND       PRES   REMARKS
FAIRMONT       MOCLDY    39  28  65 CALM      30.06S
JACKSON        CLOUDY    43  32  65 S7        30.03F
LUVERNE        CLOUDY    45  34  65 S13       30.01F
MARSHALL       CLOUDY    43  30  61 E6        29.99F
MONTEVIDEO     CLOUDY    39  34  81 SE5       30.03F
PIPESTONE      CLOUDY    45  30  57 S7        29.99F
REDWOOD FALLS  CLOUDY    40  31  70 SE5       30.03F
TRACY          CLOUDY    46  32  58 S7        30.00F
WINDOM         CLOUDY    41  32  70 CALM      30.03F
WORTHINGTON    CLOUDY    45  30  57 S7        30.02F
$$

IAZ001>003-012>014-020>022-031-032-NEZ013-014-SDZ071-300600-
NORTHWEST IOWA

CITY           SKY/WX    TMP DP  RH WIND       PRES   REMARKS
CHEROKEE       CLOUDY    41  37  84 W5        30.06S
DENISON        PTCLDY    36  34  93 CALM      30.05F
ESTHERVILLE    CLOUDY    38  30  73 S6        30.05S
LE MARS        CLOUDY    46  36  66 E3        30.04F
ORANGE CITY    CLOUDY    46  32  57 S5        30.03F
SHELDON        CLOUDY    43  32  65 S7        30.03S
SIOUX CITY     CLOUDY    44  34  67 SE5       30.04F
SPENCER        MOCLDY    40  34  79 S3        30.05F
STORM LAKE     CLOUDY    41  34  75 S10       30.06F
$$

ABBREVIATIONS USED IN REMARKS
   TC - TEMPERATURE IN CELSIUS
  WCI - WIND CHILL INDEX
   HX - HEAT INDEX
  VSB - VISIBILITY




USA.gov is the U.S. government's official web portal to all federal, state and local government web resources and services.